EW7112 Weather Reports


Display with metric or nautical units.
time (UTC)temp
F
wind
direction
speed
MPH
gust
MPH
rain 1hr
in
rain 24hr
in
rain mn
in
humidity
%
barometer
mb
20260902011519 95 113 1.0 3.0 0.00 0.00 0.00 43 990.2
20260902010017 95 91 1.0 6.0 0.00 0.00 0.00 42 990.1
20260902004514 96 99 2.0 4.0 0.00 0.00 0.00 41 990.2
20260902003013 96 102 2.0 6.0 0.00 0.00 0.00 41 990.2
20260902001511 97 174 0.0 5.0 0.00 0.00 0.00 41 990.2
20260902000013 97 176 1.0 7.0 0.00 0.00 0.00 41 990.3
20260901234510 98 127 1.0 7.0 0.00 0.00 0.00 40 990.5
20260901233008 99 135 3.0 10.0 0.00 0.00 0.00 38 990.5
20260901231510 99 122 3.0 8.0 0.00 0.00 0.00 38 990.5
20260901230005 99 145 4.0 6.0 0.00 0.00 0.00 38 990.5
20260901224504 99 83 1.0 5.0 0.00 0.00 0.00 37 990.6
20260901223002 99 114 1.0 7.0 0.00 0.00 0.00 38 990.6
20260901221616 101 96 3.0 10.0 0.00 0.00 0.00 37 990.6
20260901220113 100 187 4.0 8.0 0.00 0.00 0.00 37 990.7
20260901214557 100 103 2.0 9.0 0.00 0.00 0.00 38 990.9
20260901213053 100 77 1.0 12.0 0.00 0.00 0.00 35 990.9
20260901211551 101 1 2.0 7.0 0.00 0.00 0.00 34 991.0
20260901210048 101 113 4.0 9.0 0.00 0.00 0.00 36 991.2
20260901204546 99 222 3.0 7.0 0.00 0.00 0.00 38 991.4
20260901203045 100 83 4.0 10.0 0.00 0.00 0.00 38 991.5
20260901201539 99 19 3.0 7.0 0.00 0.00 0.00 38 991.8
20260901200040 99 117 3.0 7.0 0.00 0.00 0.00 40 992.0
20260901194534 99 180 3.0 7.0 0.00 0.00 0.00 40 992.2
20260901184523 97 200 2.0 9.0 0.00 0.00 0.00 44 993.0
20260901183023 96 210 2.0 7.0 0.00 0.00 0.00 45 993.3
20260901181523 97 86 3.0 11.0 0.00 0.00 0.00 45 993.5
20260901180018 95 118 1.0 4.0 0.00 0.00 0.00 47 993.7
20260901174515 96 226 2.0 7.0 0.00 0.00 0.00 46 993.9
20260901173019 95 130 2.0 7.0 0.00 0.00 0.00 46 994.1
20260901171514 94 142 3.0 8.0 0.00 0.00 0.00 48 994.3
20260901170005 94 287 2.0 6.0 0.00 0.00 0.00 50 994.6
20260901164511 93 264 2.0 5.0 0.00 0.00 0.00 50 994.8
20260901163100 92 207 1.0 7.0 0.00 0.00 0.00 51 994.9
20260901161609 91 78 1.0 5.0 0.00 0.00 0.00 52 994.8
20260901160107 91 340 1.0 6.0 0.00 0.00 0.00 54 994.9
20260901154558 91 113 1.0 4.0 0.00 0.00 0.00 55 994.8
20260901153053 90 238 2.0 5.0 0.00 0.00 0.00 56 994.8
20260901151545 89 196 1.0 5.0 0.00 0.00 0.00 58 994.7
20260901150043 88 215 2.0 5.0 0.00 0.00 0.00 59 994.7
20260901144546 87 127 2.0 5.0 0.00 0.00 0.00 61 994.9
20260901143045 87 203 2.0 6.0 0.00 0.00 0.00 62 994.9
20260901141541 86 123 0.0 4.0 0.00 0.00 0.00 63 994.9
20260901140030 85 156 0.0 5.0 0.00 0.00 0.00 65 995.0
20260901134528 84 84 1.0 5.0 0.00 0.00 0.00 67 995.0
20260901133025 83 98 1.0 3.0 0.00 0.00 0.00 69 994.9
20260901131526 82 122 0.0 2.0 0.00 0.00 0.00 71 994.8
20260901130025 81 226 0.0 1.0 0.00 0.00 0.00 71 994.6
20260901124519 81 226 0.0 0.0 0.00 0.00 0.00 71 994.3
20260901123014 82 226 0.0 0.0 0.00 0.00 0.00 70 994.1
20260901121512 82 226 0.0 0.0 0.00 0.00 0.00 68 994.0
20260901120009 82 94 0.0 3.0 0.00 0.00 0.00 68 994.0
20260901114510 82 197 0.0 2.0 0.00 0.00 0.00 68 993.9
20260901113008 82 197 0.0 2.0 0.00 0.00 0.00 67 993.8
20260901111505 83 197 0.0 1.0 0.00 0.00 0.00 67 993.5
20260901110004 83 197 0.0 1.0 0.00 0.00 0.00 66 993.5
20260901104506 83 197 0.0 1.0 0.00 0.00 0.00 66 993.4
20260901103002 83 197 0.0 0.0 0.00 0.00 0.00 66 993.4
20260901101604 84 197 0.0 2.0 0.00 0.00 0.00 65 993.4
20260901100104 84 245 0.0 1.0 0.00 0.00 0.00 64 993.5
20260901094557 84 218 0.0 4.0 0.00 0.00 0.00 63 993.4
20260901093101 85 213 1.0 4.0 0.00 0.00 0.00 63 993.5
20260901091555 85 214 0.0 3.0 0.00 0.00 0.00 61 993.6
20260901090054 85 215 0.0 3.0 0.00 0.00 0.00 60 993.6
20260901084554 85 174 1.0 5.0 0.00 0.00 0.00 58 993.5
20260901083051 85 86 2.0 5.0 0.00 0.00 0.00 57 993.4
20260901081552 85 146 0.0 5.0 0.00 0.00 0.00 57 993.4
20260901080049 85 92 0.0 2.0 0.00 0.00 0.00 56 993.3
20260901074548 85 101 0.0 2.0 0.00 0.00 0.00 56 993.3
20260901073054 85 101 0.0 3.0 0.00 0.00 0.00 55 993.3
20260901071545 85 94 0.0 4.0 0.00 0.00 0.00 55 993.2
20260901070053 85 148 1.0 4.0 0.00 0.00 0.00 55 993.1
20260901064543 84 133 1.0 3.0 0.00 0.00 0.00 55 993.0
20260901063042 84 104 0.0 2.0 0.00 0.00 0.00 55 993.0
20260901061541 84 104 0.0 0.0 0.00 0.00 0.00 56 992.9
20260901060037 84 104 0.0 0.0 0.00 0.00 0.00 55 992.7
20260901054536 84 104 0.0 1.0 0.00 0.00 0.00 54 992.6
20260901053036 85 104 0.0 1.0 0.00 0.00 0.00 54 992.4
20260901051531 85 104 0.0 0.0 0.00 0.00 0.00 53 992.2
20260901050028 86 104 0.0 0.0 0.00 0.00 0.00 52 992.0
20260901044541 86 104 0.0 0.0 0.00 0.00 0.00 51 991.9
20260901043028 87 104 0.0 0.0 0.00 0.00 0.00 50 991.9
20260901041531 88 104 0.0 0.0 0.00 0.00 0.00 48 992.0
20260901040032 88 104 0.0 0.0 0.00 0.00 0.00 47 992.1
20260901034533 89 104 0.0 1.0 0.00 0.00 0.00 45 992.0
20260901033047 90 104 0.0 2.0 0.00 0.00 0.00 44 991.9
20260901031531 91 104 0.0 0.0 0.00 0.00 0.00 42 992.0
20260901030033 91 104 0.0 2.0 0.00 0.00 0.00 41 991.8
20260901024527 91 111 1.0 4.0 0.00 0.00 0.00 39 991.7
20260901023025 92 123 0.0 3.0 0.00 0.00 0.00 39 991.5
20260901021524 92 120 0.0 2.0 0.00 0.00 0.00 38 991.3
20260901020029 93 120 0.0 1.0 0.00 0.00 0.00 37 991.1
20260901014522 94 120 0.0 3.0 0.00 0.00 0.00 35 991.0
20260901013022 94 117 0.0 3.0 0.00 0.00 0.00 35 990.9